Aalto-2 (42729 NORAD) Tracking and Keplerian Element Data

This shows tracking and keplerian element data for the satellite.

Feedback or suggestion? Click here.




ElementValue
Catalog42729
NameAalto-2
Epoch Orbit8313
Epoch Day312.51479274
Epoch Year2018
RAAN331.8964
Inclination51.6275
Eccentricity0.0004939
Argument of Perigee49.2832
Mean Anonmoly310.8599
Mean Motion15.84007475
Decay Rate0.00076219
L11 42729U 98067MJ 18312.51479274 .00076219 00000-0 33287-3 0 9999
L22 42729 051.6275 331.8964 0004939 049.2832 310.8599 15.84007475083130

Live tracking and technical data element details for Aalto-2 (NORAD 42729). Aalto-2 can be tracked NOW for your location showing map with azimuth and elevation plus other details from your city location.

Track the satellite on the map from your city or location and see movement details for azimuth, elevation, latitude, longitude, range, height, and movement on the map or in text.







IsCatalogInMostPopularTable: catalog: 42729, numindb: 161
Update: records affected: 1



GetName: 42729 Aalto-2

Hit Count: updated at: Fri, 16 Nov 2018 03:49:58 GMT